TimeMDT,TemperatureF,Dew PointF,Humidity,Sea Level PressureIn,VisibilityMPH,Wind Direction,Wind SpeedMPH,Gust SpeedMPH,PrecipitationIn,Events,Conditions,WindDirDegrees,DateUTC
12:53 AM,64.9,52.0,63,29.73,10.0,ENE,5.8,-,N/A,,Clear,60,2013-07-06 06:53:00
1:53 AM,64.0,52.0,65,29.75,10.0,ENE,5.8,-,N/A,,Clear,70,2013-07-06 07:53:00
2:53 AM,59.0,52.0,78,29.79,10.0,Calm,Calm,-,N/A,,Clear,0,2013-07-06 08:53:00
3:53 AM,57.0,52.0,83,29.78,10.0,NW,3.5,-,N/A,,Clear,310,2013-07-06 09:53:00
4:53 AM,57.0,52.0,83,29.77,10.0,Calm,Calm,-,N/A,,Clear,0,2013-07-06 10:53:00
5:53 AM,57.0,52.0,83,29.79,10.0,NW,8.1,-,N/A,,Clear,310,2013-07-06 11:53:00
6:53 AM,61.0,54.0,78,29.81,10.0,NW,8.1,-,N/A,,Clear,320,2013-07-06 12:53:00
7:53 AM,66.0,53.1,63,29.82,10.0,NW,8.1,-,N/A,,Clear,320,2013-07-06 13:53:00
8:53 AM,70.0,51.1,51,29.83,10.0,WNW,4.6,-,N/A,,Clear,300,2013-07-06 14:53:00
9:53 AM,73.0,51.1,46,29.85,10.0,West,3.5,-,N/A,,Clear,270,2013-07-06 15:53:00
10:53 AM,75.9,55.0,48,29.83,10.0,East,5.8,-,N/A,,Clear,100,2013-07-06 16:53:00
11:53 AM,78.1,48.9,36,29.82,10.0,Variable,3.5,-,N/A,,Clear,0,2013-07-06 17:53:00
12:53 PM,82.0,46.0,28,29.80,10.0,Variable,6.9,-,N/A,,Clear,0,2013-07-06 18:53:00
1:53 PM,84.0,43.0,24,29.78,10.0,ESE,8.1,-,N/A,,Clear,120,2013-07-06 19:53:00
2:53 PM,86.0,39.0,19,29.76,10.0,SE,9.2,17.3,N/A,,Partly Cloudy,140,2013-07-06 20:53:00
3:53 PM,84.9,39.0,20,29.76,10.0,SE,4.6,-,0.00,Thunderstorm,Clear,140,2013-07-06 21:53:00
4:14 PM,84.2,35.6,18,29.97,10.0,SW,16.1,33.4,N/A,,Scattered Clouds,230,2013-07-06 22:14:00
4:53 PM,81.0,46.9,30,29.81,10.0,NNW,24.2,40.3,0.00,Thunderstorm,Mostly Cloudy,330,2013-07-06 22:53:00
5:08 PM,78.8,44.6,30,30.00,10.0,North,27.6,39.1,N/A,,Partly Cloudy,350,2013-07-06 23:08:00
5:53 PM,79.0,44.1,29,29.82,10.0,North,15.0,25.3,N/A,,Clear,360,2013-07-06 23:53:00
6:53 PM,73.9,43.0,33,29.85,10.0,NW,26.5,36.8,N/A,,Mostly Cloudy,310,2013-07-07 00:53:00
7:53 PM,70.0,42.1,36,29.86,10.0,NW,18.4,25.3,N/A,,Clear,310,2013-07-07 01:53:00
8:53 PM,66.9,46.0,47,29.87,10.0,WNW,12.7,-,N/A,,Mostly Cloudy,300,2013-07-07 02:53:00
9:53 PM,64.9,51.1,61,29.92,10.0,WNW,18.4,-,0.00,Rain,Light Rain,300,2013-07-07 03:53:00
10:53 PM,60.1,53.1,78,29.95,10.0,NW,26.5,34.5,0.00,Rain,Light Rain,310,2013-07-07 04:53:00
11:53 PM,60.1,53.1,78,29.92,10.0,West,12.7,-,0.01,,Overcast,260,2013-07-07 05:53:00